Wheeling, WV

8:00 PM EDT on September 15, 2019 (GMT -0400)
Wheeling-Ohio County

Weather History for KHLG - August, 2019

Change the Weather History Date:

Sunday, August 25, 2019

  Actual Average Record
Temperature  
Mean Temperature 65 °F 70 °F  
Max Temperature 76 °F 80 °F 95 °F (1948)
Min Temperature 53 °F 60 °F 38 °F (1942)
Degree Days  
Heating Degree Days 0 0  
Month to date heating degree days 0 0  
Since 1 June heating degree days 29 41  
Since 1 July heating degree days 0 3  
Cooling Degree Days 0    
Month to date cooling degree days 190  
Year to date cooling degree days 753  
Since 1 June cooling degree days 647  
Growing Degree Days 14 (Base 50)    
Moisture  
Dew Point 51 °F    
Average Humidity 63    
Maximum Humidity 83    
Minimum Humidity 43    
Precipitation  
Precipitation 0.00 in 0.13 in 3.25 in (1879)
Month to date precipitation 1.61 2.73  
Year to date precipitation 25.11 26.75  
Sea Level Pressure  
Sea Level Pressure 30.19 in    
Wind  
Wind Speed 10 mph (East)    
Max Wind Speed 21 mph    
Max Gust Speed 24 mph    
Visibility 10 miles    
Events      
T = Trace of Precipitation, MM = Missing Value Source: NWS Daily Summary

Daily Weather History Graph

Daily Weather History Graph

Search for Another Location

Airport or City:

Astronomy

Aug. 25, 2019 Rise Set
Actual Time 6:43 AM EDT 8:05 PM EDT
Civil Twilight 6:14 AM EDT 8:33 PM EDT
Nautical Twilight 5:40 AM EDT 9:07 PM EDT
Astronomical Twilight 5:05 AM EDT 9:43 PM EDT
Moon 1:16 AM EDT (8/25) 4:24 PM EDT (8/25)
Length of Visible Light 14h 18m
Length of Day
13h 22m
Waning Crescent, 29% of the Moon is Illuminated
Aug 25
Waning Crescent
Aug 30
New
Sep 5
First Quarter
Sep 14
Full
Sep 21
Last Quarter

Hourly Weather History & Observations

Time (EDT) Temp. Dew Point Humidity Pressure Visibility Wind Dir Wind Speed Gust Speed Precip Events Conditions
12:53 AM 59.0 °F 48.9 °F 69% 30.23 in 10.0 mi ENE 9.2 mph - N/A   Clear
1:53 AM 57.9 °F 48.9 °F 72% 30.22 in 10.0 mi East 8.1 mph - N/A   Clear
2:53 AM 57.9 °F 48.9 °F 72% 30.20 in 10.0 mi East 5.8 mph - N/A   Clear
3:53 AM 57.0 °F 48.9 °F 74% 30.20 in 10.0 mi ENE 6.9 mph - N/A   Clear
4:53 AM 55.0 °F 48.9 °F 80% 30.20 in 10.0 mi East 6.9 mph - N/A   Clear
5:53 AM 54.0 °F 48.9 °F 83% 30.21 in 10.0 mi East 5.8 mph - N/A   Clear
6:53 AM 53.1 °F 48.9 °F 86% 30.22 in 10.0 mi East 6.9 mph - N/A   Clear
7:53 AM 57.0 °F 50.0 °F 77% 30.24 in 10.0 mi East 6.9 mph - N/A   Clear
8:53 AM 61.0 °F 51.1 °F 70% 30.23 in 10.0 mi East 5.8 mph - N/A   Clear
9:53 AM 64.9 °F 52.0 °F 63% 30.22 in 10.0 mi East 6.9 mph - N/A   Clear
10:53 AM 69.1 °F 53.1 °F 57% 30.22 in 10.0 mi East 11.5 mph - N/A   Clear
11:53 AM 72.0 °F 48.0 °F 43% 30.22 in 10.0 mi ESE 15.0 mph - N/A   Partly Cloudy
12:53 PM 73.0 °F 50.0 °F 44% 30.20 in 10.0 mi ESE 13.8 mph 20.7 mph N/A   Partly Cloudy
1:53 PM 75.0 °F 52.0 °F 44% 30.18 in 10.0 mi ESE 19.6 mph 24.2 mph N/A   Partly Cloudy
2:53 PM 75.0 °F 52.0 °F 44% 30.17 in 10.0 mi East 15.0 mph 21.9 mph N/A   Partly Cloudy
3:53 PM 75.9 °F 52.0 °F 43% 30.16 in 10.0 mi East 13.8 mph 20.7 mph N/A   Scattered Clouds
4:53 PM 73.0 °F 52.0 °F 48% 30.17 in 10.0 mi East 9.2 mph - N/A   Scattered Clouds
5:53 PM 72.0 °F 51.1 °F 48% 30.16 in 10.0 mi ESE 13.8 mph 20.7 mph N/A   Clear
6:53 PM 71.1 °F 52.0 °F 51% 30.15 in 10.0 mi East 8.1 mph - N/A   Partly Cloudy
7:53 PM 66.9 °F 51.1 °F 57% 30.14 in 10.0 mi East 8.1 mph - N/A   Clear
8:53 PM 66.0 °F 51.1 °F 59% 30.14 in 10.0 mi East 10.4 mph - N/A   Clear
9:53 PM 63.0 °F 51.1 °F 65% 30.14 in 10.0 mi East 9.2 mph - N/A   Clear
10:53 PM 62.1 °F 51.1 °F 67% 30.15 in 10.0 mi ESE 9.2 mph - N/A   Clear
11:53 PM 61.0 °F 51.1 °F 70% 30.16 in 10.0 mi ESE 10.4 mph - N/A   Clear